Weather History for Point Salines, Grenada

Change the Weather History Date:

Saturday, February 8, 2014

  Actual Average Record
Temperature  
Mean Temperature 78 °F -  
Max Temperature 84 °F 83 °F 86 °F (1998)
Min Temperature 73 °F 73 °F 71 °F (2004)
Cooling Degree Days 14    
Growing Degree Days 28 (Base 50)    
Moisture  
Dew Point 74 °F    
Average Humidity 84    
Maximum Humidity 100    
Minimum Humidity 68    
Precipitation  
Precipitation 0.08 in - - ()
Sea Level Pressure  
Sea Level Pressure 29.94 in    
Wind  
Wind Speed 15 mph ()    
Max Wind Speed 25 mph    
Max Gust Speed -    
Visibility 6.8 miles    
Events Rain    
Averages and records for this station are not official NWS values.
T = Trace of Precipitation, MM = Missing Value Source: Averaged Metar Reports

Daily Weather History Graph

Daily Weather History Graph

Search for Another Location

Airport:

Trip Planner

Search our weather history database for the weather conditions in past years. The results will help you decide how hot, cold, wet, or windy it might be!

Date:

Astronomy

Feb. 08, 2014 Rise Set
Actual Time 6:30 AM AST 6:12 PM AST
Civil Twilight 6:08 AM AST 6:33 PM AST
Nautical Twilight 5:43 AM AST 6:59 PM AST
Astronomical Twilight 5:18 AM AST 7:24 PM AST
Moon 1:17 PM AST (2/8) 1:26 AM AST (2/8)
Length of Visible Light 12h 24m
Length of Day
11h 41m
Waxing Gibbous, 68% of the Moon is Illuminated
Feb 8
Waxing Gibbous
Feb 14
Full
Feb 22
Last Quarter
Mar 1
New
Mar 8
First Quarter

Hourly Weather History & Observations

Time (AST) Temp. Heat Index Dew Point Humidity Pressure Visibility Wind Dir Wind Speed Gust Speed Precip Events Conditions
12:00 AM 77.0 °F - 75.2 °F 94% 29.98 in 6.2 mi East 17.3 mph - N/A   Mostly Cloudy
1:00 AM 75.2 °F - 75.2 °F 100% 29.95 in 6.2 mi East 19.6 mph - N/A Rain Light Rain
2:00 AM 77 °F - 74 °F 89% 29.94 in 10 mi East 20.7 mph - -   Widespread Dust
2:00 AM 77.0 °F - 75.2 °F 94% 29.92 in 6.2 mi East 20.7 mph - N/A   Mostly Cloudy
3:00 AM 77.0 °F - 75.2 °F 94% 29.92 in 6.2 mi ESE 17.3 mph - N/A Rain Light Rain
4:00 AM 75.2 °F - 75.2 °F 100% 29.92 in 6.2 mi East 16.1 mph - N/A   Mostly Cloudy
5:00 AM 77 °F - 72 °F 79% 29.92 in 9 mi East 17.3 mph - -   Widespread Dust
5:00 AM 77.0 °F - 71.6 °F 83% 29.92 in 6.2 mi East 17.3 mph - N/A   Mostly Cloudy
6:00 AM 78.8 °F - 71.6 °F 78% 29.92 in 6.2 mi ESE 18.4 mph - N/A   Mostly Cloudy
7:00 AM 78.8 °F - 71.6 °F 78% 29.95 in 6.2 mi East 13.8 mph - N/A   Scattered Clouds
8:00 AM 81 °F - 73 °F 71% 29.97 in 7 mi East 16.1 mph - -   Widespread Dust
8:00 AM 80.6 °F 85.4 °F 73.4 °F 79% 29.95 in 6.2 mi East 16.1 mph - N/A   Scattered Clouds
9:00 AM 80.6 °F 85.4 °F 73.4 °F 79% 29.98 in 6.2 mi East 15.0 mph - N/A   Scattered Clouds
10:00 AM 80.6 °F 85.4 °F 73.4 °F 79% 30.01 in 6.2 mi East 18.4 mph - N/A   Mostly Cloudy
11:00 AM 83 °F - 74 °F 69% 29.99 in 11 mi ESE 16.1 mph - -   Widespread Dust
11:00 AM 84.2 °F 92.3 °F 75.2 °F 74% 29.98 in 6.2 mi East 16.1 mph - N/A   Scattered Clouds
12:00 PM 84.2 °F 90.9 °F 73.4 °F 70% 29.98 in 6.2 mi East 15.0 mph - N/A   Scattered Clouds
1:00 PM 82.4 °F 88.2 °F 73.4 °F 74% 29.95 in 6.2 mi ESE 12.7 mph - N/A   Scattered Clouds
2:00 PM 83 °F - 74 °F 68% 29.93 in 15 mi ESE 17.3 mph - -   Widespread Dust
2:00 PM 84.2 °F 90.9 °F 73.4 °F 70% 29.92 in 6.2 mi ESE 17.3 mph - N/A   Scattered Clouds
3:00 PM 84.2 °F 92.3 °F 75.2 °F 74% 29.89 in 6.2 mi ESE 17.3 mph - N/A   Mostly Cloudy
4:00 PM 84.2 °F 92.3 °F 75.2 °F 74% 29.89 in 5.0 mi East 18.4 mph - N/A   Scattered Clouds
4:20 PM 77.0 °F - 75.2 °F 94% 29.89 in 2.5 mi ESE 25.3 mph - N/A Rain Rain Showers
5:00 PM 75 °F - 73 °F 91% 29.91 in 7 mi East 13.8 mph - - Rain Light Rain Showers
5:00 PM 75.2 °F - 73.4 °F 94% 29.92 in 6.2 mi East 16.1 mph - N/A   Mostly Cloudy
6:00 PM 77.0 °F - 75.2 °F 94% 29.92 in 5.0 mi ENE 9.2 mph - N/A Rain Light Rain Showers
7:00 PM 77.0 °F - 75.2 °F 94% 29.92 in 6.2 mi East 11.5 mph - N/A   Mostly Cloudy
8:00 PM 77 °F - 74 °F 87% 29.94 in 11 mi ENE 9.2 mph - -   Widespread Dust
8:00 PM 77.0 °F - 73.4 °F 89% 29.92 in 6.2 mi ENE 9.2 mph - N/A   Scattered Clouds
9:00 PM 77.0 °F - 73.4 °F 89% 29.95 in 6.2 mi ENE 9.2 mph - N/A   Scattered Clouds
10:00 PM 77.0 °F - 75.2 °F 94% 29.95 in 6.2 mi ENE 6.9 mph - N/A   Mostly Cloudy
11:00 PM 77.0 °F - 73.4 °F 89% 29.95 in 6.2 mi ENE 8.1 mph - N/A Rain Light Rain Showers